EW4436 Weather Reports


time (UTC)temp
C
wind
direction
speed
KPH
gust
KPH
rain 1hr
cm
rain 24hr
cm
rain mn
cm
humidity
%
barometer
mb
20260507130603 13 347 1.6 4.8 0.03 0.23 0.20 99 1006.6
20260507130105 13 348 0.0 1.6 0.03 0.23 0.20 99 1006.2
20260507125603 13 347 0.0 1.6 0.03 0.23 0.20 99 1005.8
20260507125104 13 346 0.0 3.2 0.03 0.23 0.20 99 1005.9
20260507124604 13 347 0.0 1.6 0.03 0.23 0.20 99 1006.0
20260507124104 14 347 0.0 3.2 0.05 0.23 0.20 99 1006.0
20260507123604 14 347 0.0 1.6 0.05 0.23 0.20 99 1006.0
20260507123103 13 347 0.0 0.0 0.08 0.23 0.20 99 1006.0
20260507122603 13 347 0.0 1.6 0.10 0.23 0.20 99 1006.1
20260507121103 14 347 0.0 0.0 0.18 0.23 0.20 99 1006.3
20260507120604 14 347 0.0 0.0 0.15 0.20 0.18 99 1006.2
20260507120104 14 347 0.0 1.6 0.15 0.20 0.18 99 1005.9
20260507115604 14 347 0.0 1.6 0.15 0.20 0.18 99 1006.1
20260507115104 13 346 0.0 1.6 0.15 0.20 0.18 99 1005.9
20260507114603 14 346 0.0 1.6 0.15 0.20 0.18 99 1006.3
20260507114103 14 345 0.0 3.2 0.13 0.18 0.15 99 1006.1
20260507113604 14 345 1.6 3.2 0.13 0.18 0.15 99 1006.0
20260507113103 14 345 0.0 1.6 0.10 0.15 0.13 99 1006.2
20260507112603 15 346 1.6 3.2 0.08 0.13 0.10 99 1006.1
20260507112104 15 346 1.6 3.2 0.05 0.10 0.08 98 1006.3
20260507111603 15 346 0.0 3.2 0.00 0.05 0.03 97 1005.9
20260507111103 15 346 0.0 8.0 0.00 0.05 0.03 97 1005.9
20260507110604 15 345 1.6 3.2 0.00 0.05 0.03 96 1005.9
20260507110104 15 346 0.0 3.2 0.00 0.05 0.03 97 1005.5
20260507105604 15 344 3.2 9.7 0.00 0.05 0.03 96 1005.6
20260507105103 15 345 1.6 3.2 0.00 0.05 0.03 96 1005.3
20260507104603 15 346 1.6 3.2 0.00 0.05 0.03 97 1005.2
20260507104103 15 347 1.6 9.7 0.00 0.05 0.03 97 1005.3
20260507103603 16 346 1.6 3.2 0.00 0.05 0.03 98 1005.1
20260507103103 16 346 0.0 1.6 0.00 0.05 0.03 98 1005.2
20260507102604 16 345 1.6 3.2 0.00 0.05 0.03 97 1005.3
20260507102103 16 345 1.6 1.6 0.00 0.05 0.03 98 1005.2
20260507101603 16 346 1.6 4.8 0.00 0.05 0.03 97 1005.1
20260507101103 16 346 0.0 3.2 0.00 0.05 0.03 98 1005.1
20260507100603 16 345 1.6 4.8 0.00 0.05 0.03 98 1005.3
20260507100105 16 344 1.6 3.2 0.00 0.05 0.03 98 1005.1
20260507095603 16 345 1.6 4.8 0.00 0.05 0.03 98 1005.0
20260507095103 16 349 1.6 4.8 0.00 0.05 0.03 98 1005.3
20260507094603 16 347 1.6 8.0 0.00 0.05 0.03 98 1005.2
20260507094103 16 346 1.6 3.2 0.00 0.05 0.03 99 1005.0
20260507093604 17 344 1.6 3.2 0.00 0.05 0.03 99 1004.9
20260507093104 17 344 1.6 3.2 0.00 0.05 0.03 99 1004.9
20260507092604 17 346 0.0 1.6 0.00 0.05 0.03 99 1004.6
20260507092104 17 346 0.0 1.6 0.00 0.05 0.03 99 1004.5
20260507091604 17 347 0.0 3.2 0.00 0.05 0.03 99 1004.4
20260507091104 17 348 1.6 3.2 0.00 0.05 0.03 99 1004.1
20260507090105 17 347 1.6 3.2 0.00 0.05 0.03 99 1004.0
20260507085603 18 347 0.0 4.8 0.00 0.05 0.03 99 1003.8
20260507085103 18 345 1.6 4.8 0.00 0.05 0.03 99 1004.2
20260507084603 18 344 1.6 3.2 0.00 0.05 0.03 99 1004.2
20260507084103 19 342 3.2 4.8 0.03 0.05 0.03 99 1004.2
20260507083604 19 343 0.0 1.6 0.03 0.05 0.03 99 1004.1
20260507083103 19 342 0.0 0.0 0.03 0.05 0.03 99 1003.7
20260507082604 19 342 0.0 1.6 0.03 0.05 0.03 99 1003.6
20260507082104 19 342 0.0 4.8 0.03 0.05 0.03 99 1003.8
20260507081604 19 340 1.6 4.8 0.03 0.05 0.03 99 1003.8
20260507081104 20 342 0.0 1.6 0.03 0.05 0.03 99 1003.8
20260507080603 20 342 0.0 1.6 0.03 0.05 0.03 99 1003.9
20260507075604 20 342 1.6 3.2 0.03 0.05 0.03 98 1003.8
20260507075103 20 342 0.0 4.8 0.03 0.05 0.03 98 1004.1
20260507074603 20 341 3.2 4.8 0.03 0.05 0.03 97 1004.2
20260507074103 20 342 1.6 4.8 0.00 0.03 0.00 97 1004.3
20260507073604 20 344 1.6 4.8 0.00 0.03 0.00 96 1004.0
20260507073104 20 341 3.2 11.3 0.00 0.03 0.00 96 1003.9
20260507072604 20 340 3.2 12.9 0.00 0.03 0.00 96 1003.9
20260507072103 20 337 4.8 12.9 0.00 0.03 0.00 97 1003.7
20260507071604 20 341 4.8 9.7 0.00 0.03 0.00 97 1003.6
20260507071103 20 339 3.2 8.0 0.00 0.03 0.00 97 1003.4
20260507070604 20 341 1.6 4.8 0.00 0.03 0.00 96 1003.2
20260507065603 21 339 4.8 8.0 0.00 0.03 0.00 95 1003.1
20260507065104 21 341 3.2 4.8 0.00 0.03 0.00 95 1002.8
20260507064604 21 341 1.6 3.2 0.00 0.03 0.00 95 1002.7
20260507064103 21 343 0.0 9.7 0.00 0.03 0.00 95 1002.6
20260507063604 21 338 3.2 8.0 0.00 0.03 0.00 95 1002.7
20260507062603 21 338 3.2 8.0 0.00 0.03 0.00 94 1002.8
20260507061604 21 330 4.8 14.5 0.00 0.03 0.00 94 1003.0
20260507061104 21 338 6.4 11.3 0.00 0.03 0.00 93 1003.2
20260507060604 21 339 3.2 12.9 0.00 0.03 0.00 94 1003.3
20260507060105 21 339 4.8 12.9 0.00 0.03 0.00 93 1003.4
20260507055103 21 328 6.4 11.3 0.00 0.03 0.00 91 1003.8
20260507054104 22 331 8.0 14.5 0.00 0.03 0.00 88 1003.7
20260507053603 22 338 4.8 14.5 0.00 0.03 0.00 88 1004.1
20260507053104 22 344 4.8 11.3 0.00 0.03 0.00 88 1004.2
20260507052604 22 337 8.0 11.3 0.00 0.03 0.00 88 1004.2
20260507052104 22 337 4.8 9.7 0.00 0.03 0.00 87 1004.3
20260507051604 22 337 4.8 9.7 0.00 0.03 0.00 87 1004.2
20260507051103 22 334 8.0 12.9 0.00 0.03 0.00 87 1004.5
20260507050603 22 343 3.2 12.9 0.00 0.03 0.00 86 1004.2
20260507050104 22 336 8.0 16.1 0.00 0.03 0.00 86 1004.4
20260507045603 22 334 4.8 9.7 0.00 0.03 0.00 86 1004.4
20260507045104 22 331 8.0 11.3 0.00 0.03 0.00 86 1004.5
20260507044603 22 339 6.4 11.3 0.00 0.03 0.00 86 1004.4
20260507043603 22 345 4.8 12.9 0.00 0.03 0.00 86 1004.5
20260507043103 22 329 8.0 12.9 0.00 0.03 0.00 86 1004.4
20260507042103 21 333 8.0 12.9 0.00 0.03 0.00 88 1004.3
20260507041603 21 334 6.4 9.7 0.00 0.03 0.00 88 1004.2
20260507041105 21 343 1.6 12.9 0.00 0.03 0.00 88 1004.4
20260507040604 21 338 4.8 9.7 0.00 0.03 0.00 89 1004.3
20260507040105 21 342 3.2 9.7 0.00 0.03 0.00 89 1004.3
20260507035604 21 340 4.8 12.9 0.00 0.03 0.03 89 1004.4
20260507035104 21 340 6.4 12.9 0.00 0.03 0.03 89 1004.4
20260507034103 21 343 3.2 4.8 0.00 0.03 0.03 90 1004.5
20260507033604 21 342 3.2 8.0 0.00 0.03 0.03 90 1004.3
20260507033104 21 344 3.2 8.0 0.00 0.03 0.03 90 1004.5
20260507032603 21 339 3.2 8.0 0.00 0.03 0.03 91 1004.3
20260507032104 20 339 1.6 8.0 0.00 0.03 0.03 91 1004.1
20260507031604 21 342 6.4 11.3 0.00 0.03 0.03 90 1004.2
20260507031103 20 338 3.2 9.7 0.00 0.03 0.03 91 1004.2
20260507030604 20 342 3.2 8.0 0.00 0.03 0.03 91 1004.4
20260507030105 20 342 1.6 9.7 0.00 0.03 0.03 91 1004.5
20260507025604 20 340 4.8 11.3 0.00 0.03 0.03 91 1004.3
20260507024103 20 341 3.2 4.8 0.00 0.03 0.03 91 1004.3
20260507023604 21 341 3.2 9.7 0.00 0.03 0.03 90 1004.4
20260507023104 21 342 3.2 8.0 0.00 0.03 0.03 90 1004.6
20260507022604 21 341 4.8 8.0 0.00 0.03 0.03 89 1004.6
20260507022104 21 339 4.8 8.0 0.00 0.03 0.03 89 1004.5
20260507021604 21 339 3.2 8.0 0.00 0.03 0.03 89 1004.4
20260507020604 21 339 3.2 9.7 0.00 0.03 0.03 89 1004.6
20260507015604 21 339 3.2 8.0 0.00 0.03 0.03 89 1004.7
20260507015104 21 341 3.2 8.0 0.00 0.03 0.03 88 1004.7
20260507014604 21 342 1.6 4.8 0.00 0.03 0.03 88 1004.8
20260507014104 21 339 3.2 4.8 0.00 0.03 0.03 88 1004.8
20260507013603 21 342 1.6 8.0 0.00 0.03 0.03 88 1004.6
20260507013103 21 342 3.2 8.0 0.00 0.03 0.03 88 1004.7
20260507012604 21 344 1.6 3.2 0.00 0.03 0.03 87 1004.6
20260507012103 21 343 1.6 4.8 0.00 0.03 0.03 87 1004.6
20260507011604 21 341 3.2 11.3 0.00 0.03 0.03 86 1004.7
20260507011104 21 343 3.2 8.0 0.00 0.03 0.03 86 1004.9
20260507010603 21 338 3.2 9.7 0.00 0.03 0.03 86 1004.6
20260507005604 21 343 1.6 4.8 0.00 0.03 0.03 85 1004.8
20260507005103 21 344 3.2 9.7 0.00 0.03 0.03 85 1004.8
20260507004603 21 342 1.6 8.0 0.00 0.03 0.03 85 1004.6
20260507003604 22 343 1.6 4.8 0.00 0.03 0.03 84 1004.6
20260507003104 22 342 1.6 4.8 0.00 0.03 0.03 84 1004.6
20260507002603 22 341 3.2 4.8 0.00 0.03 0.03 84 1004.5
20260507002104 22 340 4.8 11.3 0.00 0.03 0.03 83 1004.6
20260507001603 22 344 1.6 4.8 0.00 0.03 0.03 83 1004.7
20260507001103 22 342 1.6 9.7 0.00 0.03 0.03 83 1004.6
20260507000104 22 342 4.8 11.3 0.00 0.03 0.03 82 1004.3
20260506235604 22 342 1.6 9.7 0.00 0.03 0.03 83 1004.4
20260506235104 22 338 3.2 9.7 0.00 0.03 0.03 82 1004.2
20260506234603 22 342 3.2 4.8 0.00 0.03 0.03 82 1004.5
20260506233603 22 342 1.6 8.0 0.00 0.03 0.03 82 1004.3
20260506233104 22 342 3.2 4.8 0.00 0.03 0.03 81 1004.3
20260506232603 22 342 3.2 8.0 0.00 0.03 0.03 81 1004.3
20260506231604 22 339 4.8 8.0 0.00 0.03 0.03 81 1004.1
20260506231104 22 343 3.2 9.7 0.00 0.03 0.03 81 1004.1
20260506230604 23 341 4.8 8.0 0.00 0.03 0.03 80 1004.0
20260506230104 23 340 4.8 12.9 0.00 0.03 0.03 80 1004.1
20260506225604 23 342 3.2 11.3 0.00 0.03 0.03 80 1004.2
20260506225103 23 341 3.2 9.7 0.00 0.03 0.03 81 1004.1
20260506224603 23 341 3.2 11.3 0.00 0.03 0.03 79 1004.1
20260506224104 23 339 4.8 9.7 0.00 0.03 0.03 80 1004.3
20260506223604 23 338 6.4 12.9 0.00 0.03 0.03 79 1004.2
20260506223104 23 341 6.4 11.3 0.00 0.03 0.03 79 1004.3
20260506222604 23 335 9.7 14.5 0.00 0.03 0.03 79 1004.1
20260506222104 23 338 4.8 11.3 0.00 0.03 0.03 78 1004.1
20260506221604 23 340 6.4 9.7 0.00 0.03 0.03 78 1004.4
20260506221104 23 340 4.8 9.7 0.00 0.03 0.03 77 1004.3
20260506215604 23 336 8.0 14.5 0.00 0.03 0.03 78 1004.3
20260506215104 23 341 6.4 12.9 0.00 0.03 0.03 77 1004.2
20260506214603 23 337 4.8 22.5 0.00 0.03 0.03 77 1004.4
20260506214104 23 333 9.7 20.9 0.00 0.03 0.03 77 1004.3
20260506213604 23 333 9.7 16.1 0.00 0.03 0.03 77 1004.4
20260506213104 23 340 4.8 11.3 0.00 0.03 0.03 78 1004.1
20260506211604 23 337 8.0 16.1 0.00 0.03 0.03 77 1004.3
20260506211104 23 337 11.3 22.5 0.00 0.03 0.03 78 1004.2
20260506210104 23 332 14.5 24.1 0.00 0.03 0.03 77 1003.7
20260506205604 23 331 9.7 12.9 0.00 0.03 0.03 76 1003.9
20260506204603 23 330 8.0 14.5 0.00 0.03 0.03 78 1004.1
20260506204104 23 336 9.7 16.1 0.00 0.03 0.03 77 1003.8
20260506203604 23 327 6.4 16.1 0.00 0.03 0.03 77 1003.9
20260506202603 23 338 6.4 12.9 0.00 0.03 0.03 78 1003.7
20260506202103 23 339 6.4 24.1 0.00 0.03 0.03 78 1003.6
20260506201603 23 334 11.3 24.1 0.00 0.03 0.03 78 1003.8
20260506200604 22 338 8.0 14.5 0.00 0.03 0.03 79 1003.7
20260506200104 22 340 4.8 11.3 0.00 0.03 0.03 82 1003.9
20260506195604 22 340 3.2 8.0 0.00 0.03 0.03 82 1004.3
20260506195104 22 340 4.8 8.0 0.00 0.03 0.03 82 1004.2
20260506194604 22 338 3.2 14.5 0.00 0.03 0.03 82 1004.1
20260506194104 21 338 4.8 9.7 0.00 0.03 0.03 84 1004.1
20260506193603 21 336 6.4 9.7 0.00 0.03 0.03 84 1004.1
20260506193104 21 335 8.0 11.3 0.00 0.03 0.03 84 1004.6
20260506192604 21 339 4.8 11.3 0.00 0.03 0.03 85 1004.8
20260506192104 21 335 4.8 9.7 0.00 0.03 0.03 85 1005.1
20260506191603 21 341 4.8 8.0 0.00 0.03 0.03 85 1005.0
20260506190603 21 338 4.8 11.3 0.00 0.03 0.03 83 1005.3
20260506190105 21 341 4.8 14.5 0.00 0.03 0.03 84 1005.3
20260506185604 21 329 8.0 16.1 0.00 0.03 0.03 82 1005.3
20260506185104 22 333 9.7 16.1 0.00 0.03 0.03 82 1005.4
20260506184604 22 339 16.1 27.4 0.00 0.03 0.03 79 1005.4
20260506183604 22 321 12.9 25.7 0.00 0.03 0.03 79 1005.6
20260506183104 22 336 11.3 19.3 0.00 0.03 0.03 79 1005.7
20260506182603 22 337 9.7 19.3 0.00 0.03 0.03 80 1005.8
20260506182104 22 334 11.3 19.3 0.00 0.03 0.03 80 1005.8
20260506181603 22 335 6.4 20.9 0.00 0.03 0.03 80 1006.1
20260506181104 22 339 6.4 20.9 0.00 0.03 0.03 82 1006.0
20260506180604 21 334 6.4 20.9 0.00 0.03 0.03 82 1006.0
20260506180104 21 329 9.7 19.3 0.00 0.03 0.03 84 1006.0
20260506175604 21 350 9.7 14.5 0.00 0.03 0.03 84 1005.8
20260506175104 21 327 11.3 22.5 0.00 0.03 0.03 84 1005.8
20260506174603 21 335 9.7 16.1 0.00 0.03 0.03 83 1005.8
20260506173603 21 333 8.0 20.9 0.00 0.03 0.03 86 1005.8
20260506173103 21 335 9.7 19.3 0.00 0.03 0.03 84 1005.7
20260506172603 21 334 9.7 14.5 0.00 0.03 0.03 85 1005.9
20260506172103 21 338 8.0 16.1 0.00 0.03 0.03 86 1006.0
20260506171603 20 337 6.4 16.1 0.00 0.03 0.03 88 1006.0
20260506170603 20 328 14.5 19.3 0.00 0.03 0.03 87 1006.2
20260506170104 20 344 11.3 16.1 0.00 0.03 0.03 87 1006.4
20260506165603 20 330 8.0 19.3 0.03 0.03 0.03 89 1006.5
20260506165103 20 328 8.0 19.3 0.03 0.03 0.03 91 1006.5
20260506164604 19 335 8.0 14.5 0.03 0.03 0.03 91 1006.5
20260506164104 19 332 9.7 14.5 0.03 0.03 0.03 91 1006.7
20260506163604 19 341 4.8 11.3 0.03 0.03 0.03 93 1006.8
20260506163103 19 335 8.0 11.3 0.03 0.03 0.03 92 1006.9
20260506162104 19 341 4.8 9.7 0.03 0.03 0.03 93 1006.9
20260506161103 19 336 4.8 9.7 0.03 0.03 0.03 93 1007.1
20260506160603 19 339 4.8 9.7 0.03 0.03 0.03 93 1007.3
20260506160104 19 340 6.4 14.5 0.03 0.03 0.03 91 1007.3
20260506155603 19 334 6.4 9.7 0.00 0.00 0.00 90 1007.5
20260506155104 19 333 4.8 11.3 0.00 0.00 0.00 89 1007.5
20260506154104 20 331 9.7 12.9 0.00 0.00 0.00 87 1007.8
20260506153104 20 323 12.9 19.3 0.00 0.00 0.00 85 1007.9
20260506152604 20 338 8.0 19.3 0.00 0.00 0.00 86 1007.9
20260506152104 20 338 4.8 14.5 0.00 0.00 0.00 87 1007.9
20260506151604 20 337 8.0 12.9 0.00 0.00 0.00 85 1008.1
20260506151104 20 330 8.0 12.9 0.00 0.00 0.00 85 1007.9
20260506150104 21 332 11.3 20.9 0.00 0.00 0.00 83 1008.1
20260506145604 21 326 12.9 20.9 0.00 0.00 0.00 80 1007.9
20260506145103 21 330 9.7 16.1 0.00 0.00 0.00 81 1007.7
20260506144604 20 330 9.7 19.3 0.00 0.00 0.00 82 1007.6
20260506144103 20 330 6.4 11.3 0.00 0.00 0.00 83 1007.7
20260506143603 20 325 11.3 22.5 0.00 0.00 0.00 83 1007.6
20260506143104 20 328 9.7 14.5 0.00 0.00 0.00 83 1007.5
20260506142604 20 331 9.7 19.3 0.00 0.00 0.00 84 1007.4
20260506142104 20 335 8.0 12.9 0.00 0.00 0.00 83 1007.4
20260506141604 20 339 4.8 11.3 0.00 0.00 0.00 83 1007.7
20260506141104 20 330 6.4 16.1 0.00 0.00 0.00 83 1007.8
20260506140604 20 338 6.4 11.3 0.00 0.00 0.00 83 1007.6
20260506140104 20 341 6.4 16.1 0.00 0.00 0.00 83 1007.6
20260506135603 20 337 8.0 12.9 0.00 0.00 0.00 82 1007.6
20260506134604 20 334 8.0 16.1 0.00 0.00 0.00 82 1007.5
20260506134103 20 331 9.7 14.5 0.00 0.00 0.00 81 1007.5
20260506133603 20 324 11.3 22.5 0.00 0.00 0.00 80 1007.5
20260506133104 20 336 9.7 27.4 0.00 0.00 0.00 81 1007.5
20260506132603 20 317 14.5 24.1 0.00 0.00 0.00 80 1007.6
20260506132104 20 332 14.5 24.1 0.00 0.00 0.00 81 1007.6
20260506131604 20 332 9.7 32.2 0.00 0.00 0.00 82 1007.6
20260506131104 20 328 6.4 20.9 0.00 0.00 0.00 81 1007.6